Location: Vigevano
(45.3170°N, 8.8500°E)
Time: 18:50:06
(UTC+01:00)

ISS - Visible Passes

Search period start: 30 November 2023 00:00
Search period end: 10 December 2023 00:00
Orbit: 416 x 417 km, 51.6° (Epoch: 30 November)

Date Brightness Start Highest point End Pass type
(mag) Time Alt. Az. Time Alt. Az. Time Alt. Az.
30 Nov -2.7 17:29:07 10° NW 17:32:08 30° N 17:34:45 12° ENE visible
30 Nov -2.0 19:05:49 10° WNW 19:07:40 30° WNW 19:07:40 30° WNW visible
01 Dec -3.7 18:17:25 10° WNW 18:20:45 60° NNE 18:21:29 45° ENE visible
02 Dec -3.3 17:28:59 10° NW 17:32:13 43° NNE 17:35:23 10° E visible
02 Dec -2.1 19:05:48 10° WNW 19:08:19 34° WSW 19:08:19 34° WSW visible
03 Dec -3.4 18:17:10 10° WNW 18:20:30 63° SSW 18:22:23 23° SE visible
04 Dec -3.8 17:28:34 10° WNW 17:31:57 83° NNE 17:35:17 10° ESE visible
04 Dec -1.0 19:06:10 10° W 19:08:17 16° SW 19:09:39 13° SSW visible
05 Dec -1.5 18:17:00 10° W 18:19:50 25° SW 18:22:39 10° SSE visible
06 Dec -2.3 17:28:05 10° WNW 17:31:16 41° SW 17:34:26 10° SE visible
07 Dec -0.1 18:18:14 10° WSW 18:18:44 10° SW 18:19:16 10° SW visible
08 Dec -0.6 17:27:53 10° W 17:30:10 17° SW 17:32:26 10° S visible
